St. Augustine, FL

2:45 AM EDT on July 23, 2017 (GMT -0400)
Saint Augustine

Weather History for KSGJ - March, 2013

Change the Weather History Date:

Sunday, March 17, 2013

  Actual Average Record
Temperature  
Mean Temperature 64 °F -  
Max Temperature 77 °F 69 °F 88 °F (1982)
Min Temperature 50 °F 53 °F 34 °F (1988)
Degree Days  
Heating Degree Days 2    
Growing Degree Days 14 (Base 50)    
Moisture  
Dew Point 51 °F    
Average Humidity 65    
Maximum Humidity 93    
Minimum Humidity 30    
Precipitation  
Precipitation 0.02 in - - ()
Sea Level Pressure  
Sea Level Pressure 30.08 in    
Wind  
Wind Speed 8 mph (South)    
Max Wind Speed 16 mph    
Max Gust Speed 23 mph    
Visibility 10 miles    
Events Rain    
Averages and records for this station are not official NWS values.
T = Trace of Precipitation, MM = Missing Value Source: NWS Daily Summary

Daily Weather History Graph

Daily Weather History Graph

Search for Another Location

Airport or City:

Trip Planner

Search our weather history database for the weather conditions in past years. The results will help you decide how hot, cold, wet, or windy it might be!

Date:

Astronomy

Mar. 17, 2013 Rise Set
Actual Time 7:32 AM EDT 7:35 PM EDT
Civil Twilight 7:08 AM EDT 7:58 PM EDT
Nautical Twilight 6:40 AM EDT 8:26 PM EDT
Astronomical Twilight 6:13 AM EDT 8:54 PM EDT
Moon 11:07 AM EDT (3/17) 12:19 AM EDT (3/17)
Length of Visible Light 12h 50m
Length of Day
12h 02m
Waxing Crescent, 31% of the Moon is Illuminated
Mar 17
Waxing Crescent
Mar 19
First Quarter
Mar 27
Full
Apr 3
Last Quarter
Apr 10
New

Hourly Weather History & Observations

Time (EDT) Temp. Dew Point Humidity Pressure Visibility Wind Dir Wind Speed Gust Speed Precip Events Conditions
12:58 AM 57.9 °F 44.1 °F 60% 30.10 in 10.0 mi WSW 6.9 mph - N/A   Clear
1:58 AM 55.9 °F 45.0 °F 67% 30.09 in 10.0 mi WSW 6.9 mph - N/A   Clear
2:58 AM 55.0 °F 45.0 °F 69% 30.08 in 10.0 mi WSW 6.9 mph - N/A   Clear
3:58 AM 54.0 °F 44.1 °F 69% 30.07 in 10.0 mi West 8.1 mph - N/A   Clear
4:58 AM 52.0 °F 44.1 °F 74% 30.07 in 10.0 mi WSW 8.1 mph - N/A   Clear
6:58 AM 50.0 °F 44.1 °F 80% 30.11 in 10.0 mi SW 3.5 mph - N/A   Clear
7:58 AM 50.0 °F 46.0 °F 86% 30.12 in 10.0 mi SW 5.8 mph - N/A   Clear
8:58 AM 55.9 °F 51.1 °F 84% 30.14 in 10.0 mi SW 8.1 mph - N/A   Clear
9:58 AM 64.0 °F 55.0 °F 73% 30.14 in 10.0 mi SSW 8.1 mph - N/A   Clear
10:58 AM 70.0 °F 52.0 °F 53% 30.15 in 10.0 mi SW 9.2 mph - N/A   Clear
11:58 AM 73.9 °F 41.0 °F 30% 30.13 in 10.0 mi South 9.2 mph - N/A   Clear
12:58 PM 73.9 °F 43.0 °F 33% 30.11 in 10.0 mi SSW 6.9 mph 17.3 mph N/A   Clear
1:58 PM 77.0 °F 45.0 °F 32% 30.09 in 10.0 mi South 10.4 mph - N/A   Clear
2:37 PM 75.2 °F 48.2 °F 38% 30.06 in 10.0 mi SE 15.0 mph - N/A   Clear
2:58 PM 75.0 °F 52.0 °F 44% 30.05 in 10.0 mi SE 16.1 mph - N/A   Clear
3:58 PM 73.0 °F 53.1 °F 49% 30.03 in 10.0 mi SE 15.0 mph - N/A   Clear
4:58 PM 71.1 °F 53.1 °F 53% 30.02 in 10.0 mi SSE 16.1 mph 23.0 mph N/A   Clear
5:58 PM 69.1 °F 57.0 °F 65% 30.02 in 10.0 mi SE 9.2 mph - N/A   Clear
6:58 PM 68.0 °F 57.0 °F 68% 30.04 in 10.0 mi SSE 5.8 mph - N/A   Overcast
7:58 PM 66.0 °F 59.0 °F 78% 30.05 in 10.0 mi South 8.1 mph - 0.00 in Rain Light Rain
8:58 PM 66.0 °F 60.1 °F 81% 30.06 in 10.0 mi Calm Calm - 0.00 in Rain Light Rain
9:58 PM 64.0 °F 61.0 °F 90% 30.07 in 10.0 mi SE 6.9 mph - 0.01 in Rain Light Rain
10:58 PM 64.9 °F 62.1 °F 90% 30.09 in 10.0 mi South 4.6 mph - 0.01 in Rain Light Rain
11:58 PM 64.0 °F 62.1 °F 93% 30.09 in 10.0 mi South 5.8 mph - 0.00 in Rain Light Rain